OBJECT Z, 57189

Orbit data source: Space-Track

You're viewing an Uncataloged Satellite

Recently launched and/or uncataloged satellites may have evolving metadata. Metadata may include but not limited to: Owner, Maufacturer, Bus, Motor, and Mission.

OBJECT Z, 57189 is a satellite in SSO that was launched on Tue, 27 Jun 2023 UTC via a SOYUZ-2-1B launch vehicle from the Vostochny Cosmodrome (VOSTO). Unknown objects in Earth's orbit typically refer to objects detected orbiting the Earth but have not yet been identified or cataloged. These objects could be anything from previously untracked satellites, spent rocket stages, debris from satellite collisions, or even natural meteoroids temporarily captured by Earth's gravity.

Loading next visibility...
Identifier
57189, 2023-091Z
Orbit
SSO
Country
Flag of TBDTBD
Related business
Flag of RUOOO VIZARD (RU)
Manufacturer
Sputniks
Mission
Operational Commercial Com/Met
Bus & Motor
CUBESAT 3U, Unknown motor
Mass
2.98 kg wet, 2.98 kg dry
Launch date (UTC)
2023-06-27 (3 years ago)
Launch vehicle
SOYUZ-2-1B
Launch site
Vostochny Cosmodrome (VOSTO)
Object type
Unknown
Shape & HBR
Box, 0.1 m
Radar Cross Section
0.035 m², Medium (>0.1 m² and < 1m²)

Expand to show TLE details & history
Last TLE update: 7 hours ago

TLE from 7 hours ago
0 OBJECT Z
1 57189U 23091Z   26163.26150292  .00018600  00000-0  53391-3 0  9999
2 57189  97.5100 232.6478 0008546  92.3953 267.8269 15.35872791163930
Epoch: 2026-06-12T06:16Z
TLE epoch observation values (Epoch: 2026-06-12T06:16:33.852Z)
Latitude
-0.00001°
Longitude
-122.08673°
Altitude
461.665 km
Speed
7.636 km/s
True Right ascension
15h 30m 35s
True Declination
0° 00' 00"
Sunlit
Object was in full shadow at epoch
Visualization orbit readout
Latitude
Unknown
Longitude
Unknown
Altitude
Unknown
Speed
Unknown
Apparent Right ascension
Unknown
Apparent Declination
Unknown
Sunlit
N/A
Visualization observer readout
Local Sidereal Time
23:12:14
Azimuth
Unknown
Elevation
Unknown
Doppler factor
Unknown
Orbital elements
Apogee altitude
461.118 km
Perigee altitude
449.439 km
Semi-major axis
6,833.416 km
Eccentricity
0.00085
Inclination
97.51°
RAAN
232.6478°
Arg. of periapsis
92.3953°
True anomaly
267.72904°
Mean anomaly
267.8269°
Eccentric anomaly
267.77797°
Mean motion
3.84226 °/min
Orbital period
93.69 mins
BSTAR
0.00053391
Loading maneuver chart data...
Computing Atmospheric mass density...
Loading historical data...
Loading historical data...
Loading historical data...
Loading historical data...
Loading historical data...
Loading historical data...
Loading historical data...

Documentation

Showing up to 5 results
|